Location: Kaikalui
(16.5250°N, 81.1500°E)
Time: 22:50:59
(UTC+00:00)

SL-24 R/B - Pass Details

Date: 14 April 2026
Orbit: 501 x 977 km, 97.5° (Epoch: 9 May)

Event Time Altitude Azimuth Distance (km) Brightness Sun altitude
Rises 22:43:27 0° 8° (N) 2,834 7.8 -23.4°
Reaches altitude 10° 22:45:43 10° 6° (N) 1,870 6.8 -22.8°
Enters shadow 22:49:20 65° 322° (NW) 590 3.8 -22.0°
